This demonstration page uses our WeatherBlox Daily Observations layout. Learn more.

Left ArrowRight Arrow

40.92945, -100.16068

Hourly Observations for February 16, 2021

Temp ( °F °C ) Dew Point ( °F °C ) Humidity (%) Winds ( mph kmh ) Pressure ( in mb ) Visibility ( mi km ) Precip ( " mm )
12:15 am 00:15 Clear -25 -31.8 -30 -34.4 78 78 N N/A 30.48 1032 10 16.0934 N/A
12:35 am 00:35 Clear -23 -30.5 -28 -33.2 77 77 ESE 3 6 30.45 1031 10 16.0934 N/A
12:55 am 00:55 Clear -24 -31.3 -29 -34 77 77 SE 3 6 30.45 1031 10 16.0934 N/A
1:15 am 01:15 Clear -20 -29 -26 -32 75 75 SE 6 9 30.42 1030 10 16.0934 N/A
1:35 am 01:35 Clear -18 -27.9 -23 -30.8 76 76 SE 5 7 30.41 1030 10 16.0934 N/A
1:55 am 01:55 Clear -19 -28.4 -25 -31.5 75 75 ESE 6 9 30.4 1030 10 16.0934 N/A
2:15 am 02:15 Clear -19 -28.5 -25 -31.5 75 75 ESE 6 9 30.4 1030 10 16.0934 N/A
2:35 am 02:35 Clear -19 -28.5 -25 -31.5 75 75 SE 5 7 30.4 1030 10 16.0934 N/A
2:55 am 02:55 Clear -19 -28.6 -25 -31.6 75 75 SE 5 7 30.4 1029 10 16.0934 N/A
3:15 am 03:15 Clear -19 -28.6 -26 -32 72 72 SE 6 9 30.4 1029 10 16.0934 N/A
3:35 am 03:35 Clear -19 -28.6 -26 -32 72 72 SE 7 11 30.39 1029 10 16.0934 N/A
3:55 am 03:55 Mostly Cloudy -19 -28.4 -25 -31.6 74 74 ESE 5 7 30.36 1028 10 16.0934 N/A
4:15 am 04:15 Cloudy with Haze -19 -28.2 -25 -31.5 73 73 SSE 5 7 30.35 1028 3 4.82802 N/A
4:35 am 04:35 Partly Cloudy -20 -29 -26 -32.1 75 75 SE 5 7 30.36 1028 10 16.0934 N/A
4:55 am 04:55 Clear -19 -28.6 -25 -31.8 74 74 SE 5 7 30.35 1028 10 16.0934 N/A
5:15 am 05:15 Clear -19 -28.1 -25 -31.5 73 73 SE 6 9 30.34 1027 10 16.0934 N/A
5:35 am 05:35 Clear -19 -28.5 -25 -31.6 75 75 ESE 3 6 30.34 1028 10 16.0934 N/A
5:55 am 05:55 Mostly Cloudy -19 -28.2 -25 -31.5 73 73 SE 7 11 30.34 1027 10 16.0934 N/A
6:15 am 06:15 Cloudy -17 -27.4 -23 -30.6 74 74 SE 7 11 30.32 1027 10 16.0934 N/A
6:35 am 06:35 Cloudy -17 -27 -23 -30.5 72 72 SSE 8 13 30.33 1027 10 16.0934 N/A
6:55 am 06:55 Cloudy -15 -26 -21 -29.3 74 74 SSE 12 19 30.31 1027 10 16.0934 N/A
7:15 am 07:15 Cloudy -13 -25.2 -19 -28.5 74 74 SSE 12 19 30.3 1026 10 16.0934 N/A
7:35 am 07:35 Cloudy -12 -24.4 -18 -27.9 73 73 SSE 13 20 30.29 1026 10 16.0934 N/A
7:55 am 07:55 Cloudy -11 -23.7 -18 -27.5 71 71 S 14 22 30.3 1026 10 16.0934 N/A
8:15 am 08:15 Cloudy -10 -23.5 -18 -27.5 70 70 SSE 13 20 30.28 1025 10 16.0934 N/A
8:35 am 08:35 Cloudy -11 -23.9 -19 -28.1 68 68 SSE 16 26 30.29 1026 10 16.0934 N/A
8:55 am 08:55 Cloudy -10 -23.5 -18 -27.5 70 70 SSE 12 19 30.29 1026 10 16.0934 N/A
9:15 am 09:15 Cloudy -9 -22.8 -16 -26.9 69 69 SSE 15 24 30.28 1026 10 16.0934 N/A
9:35 am 09:35 Cloudy -9 -22.5 -15 -26.3 71 71 SSE 15 24 30.28 1025 10 16.0934 N/A
9:55 am 09:55 Cloudy -8 -22.1 -15 -26 71 71 SSE 13 20 30.28 1025 10 16.0934 N/A
10:15 am 10:15 Cloudy -7 -21.5 -14 -25.4 71 71 SSE 15 24 30.26 1025 10 16.0934 N/A
10:35 am 10:35 Cloudy -6 -21 -13 -25 70 70 SSE 14 22 30.25 1024 10 16.0934 N/A
10:55 am 10:55 Cloudy -5 -20.3 -12 -24.5 69 69 SSE 13 20 30.24 1024 10 16.0934 N/A
11:15 am 11:15 Cloudy -4 -20 -11 -24.1 70 70 SSE 15 24 30.24 1024 10 16.0934 N/A
11:35 am 11:35 Mostly Cloudy -3 -19.2 -10 -23.5 69 69 SSE 17 28 30.23 1024 10 16.0934 N/A
11:55 am 11:55 Sunny -1 -18.6 -10 -23.1 68 68 SSE 17 28 30.22 1023 7 11.26538 N/A
12:15 pm 12:15 Sunny -1 -18.5 -9 -22.8 69 69 SSE 16 26 30.21 1023 10 16.0934 N/A
12:35 pm 12:35 Partly Cloudy -1 -18.2 -9 -22.5 69 69 SSE 15 24 30.21 1023 10 16.0934 N/A
12:55 pm 12:55 Cloudy -1 -18.2 -9 -22.5 69 69 SSE 13 20 30.2 1023 10 16.0934 N/A
1:15 pm 13:15 Cloudy N/A -8 -22.1 69 69 SSE 12 19 30.19 1022 10 16.0934 N/A
1:35 pm 13:35 Cloudy N/A -7 -21.9 69 69 SSE 15 24 30.18 1022 10 16.0934 N/A
1:55 pm 13:55 Cloudy N/A -7 -21.6 71 71 SSE 13 20 30.16 1021 10 16.0934 N/A
2:15 pm 14:15 Cloudy 1 -17.2 -6 -21.3 71 71 SSE 15 24 30.16 1021 10 16.0934 N/A
2:35 pm 14:35 Cloudy 2 -16.9 -6 -21 71 71 SSE 14 22 30.16 1021 10 16.0934 N/A
2:55 pm 14:55 Mostly Cloudy 1 -17 -6 -21.1 71 71 SSE 14 22 30.16 1021 10 16.0934 N/A
3:15 pm 15:15 Cloudy 2 -16.7 -5 -20.7 71 71 SSE 15 24 30.15 1021 10 16.0934 N/A
3:35 pm 15:35 Cloudy 2 -16.6 -5 -20.5 72 72 SSE 14 22 30.15 1021 10 16.0934 N/A
3:55 pm 15:55 Cloudy 2 -16.7 -5 -20.5 73 73 SSE 14 22 30.16 1021 10 16.0934 N/A
4:15 pm 16:15 Cloudy 2 -16.7 -5 -20.4 73 73 SSE 14 22 30.16 1021 10 16.0934 N/A
4:35 pm 16:35 Cloudy 2 -16.7 -5 -20.3 74 74 SSE 15 24 30.16 1021 7 11.26538 N/A
4:55 pm 16:55 Cloudy 2 -16.6 -4 -20.1 75 75 SSE 13 20 30.16 1021 10 16.0934 N/A
5:15 pm 17:15 Cloudy 2 -16.5 -4 -20 75 75 SSE 12 19 30.17 1022 10 16.0934 N/A
5:35 pm 17:35 Cloudy 3 -16.3 -3 -19.7 75 75 SE 13 20 30.16 1021 10 16.0934 N/A
5:55 pm 17:55 Cloudy 3 -16.2 -3 -19.5 76 76 SE 9 15 30.16 1021 10 16.0934 N/A
6:15 pm 18:15 Cloudy 3 -16 -3 -19.2 77 77 SE 9 15 30.17 1022 10 16.0934 N/A
6:35 pm 18:35 Cloudy 4 -15.7 -2 -19 76 76 SSE 14 22 30.16 1021 10 16.0934 N/A
6:55 pm 18:55 Cloudy 4 -15.7 -2 -19 76 76 SE 10 17 30.16 1021 10 16.0934 N/A
7:15 pm 19:15 Cloudy 4 -15.7 -2 -19 76 76 SE 12 19 30.17 1022 10 16.0934 N/A
7:35 pm 19:35 Cloudy 4 -15.6 -2 -18.8 77 77 SE 10 17 30.18 1022 10 16.0934 N/A
7:55 pm 19:55 Cloudy 4 -15.6 -2 -19 75 75 SE 15 24 30.19 1022 10 16.0934 N/A
8:15 pm 20:15 Cloudy 4 -15.5 -2 -18.9 75 75 SE 10 17 30.19 1022 10 16.0934 N/A
8:35 pm 20:35 Cloudy 4 -15.5 -1 -18.6 77 77 SE 10 17 30.19 1022 10 16.0934 N/A
8:55 pm 20:55 Cloudy 4 -15.4 -1 -18.6 77 77 SE 10 17 30.19 1022 10 16.0934 N/A
9:15 pm 21:15 Cloudy 4 -15.3 -1 -18.5 77 77 SE 13 20 30.19 1022 10 16.0934 N/A
9:35 pm 21:35 Cloudy 5 -15.2 -1 -18.5 76 76 SE 14 22 30.2 1023 10 16.0934 N/A
9:55 pm 21:55 Cloudy 5 -15.1 -1 -18.2 77 77 SE 13 20 30.2 1023 10 16.0934 N/A
10:15 pm 22:15 Cloudy 5 -15 N/A 78 78 SE 13 20 30.19 1023 10 16.0934 N/A
10:35 pm 22:35 Cloudy 5 -14.9 N/A 79 79 SSE 15 24 30.19 1022 10 16.0934 N/A
10:55 pm 22:55 Cloudy 6 -14.7 1 -17.5 79 79 SSE 10 17 30.2 1023 10 16.0934 N/A
11:15 pm 23:15 Cloudy 6 -14.5 1 -17.1 81 81 SSE 10 17 30.19 1022 10 16.0934 N/A
11:35 pm 23:35 Cloudy 6 -14.3 2 -16.8 82 82 SSE 9 15 30.19 1022 10 16.0934 N/A
11:55 pm 23:55 Cloudy with Light Snow 6 -14.3 2 -16.7 82 82 SE 8 13 30.19 1022 7 11.26538 N/A

Powered by AerisWeather